Time,TemperatureF,DewpointF,PressureIn,WindDirection,WindDirectionDegrees,WindSpeedMPH,WindSpeedGustMPH,Humidity,HourlyPrecipIn,Conditions,Clouds,dailyrainin,SoftwareType,DateUTC
2013-06-07 00:01:00,55.3,55.3,29.82,NE,37,0.0,7.0,100,0.00,,OVC OVC///CB,0.55,WUHU216DAVISVP2,2013-06-07 04:01:00,
2013-06-07 00:02:00,55.3,55.3,29.82,NNE,32,3.0,7.0,100,0.00,,OVC OVC///CB,0.55,WUHU216DAVISVP2,2013-06-07 04:02:00,
2013-06-07 00:07:00,55.2,55.2,29.82,NNE,23,1.0,6.0,100,0.00,,OVC OVC///CB,0.00,WUHU216DAVISVP2,2013-06-07 04:07:00,
2013-06-07 00:12:00,55.2,55.2,29.82,ENE,65,2.0,5.0,100,0.00,,OVC OVC///CB,0.00,WUHU216DAVISVP2,2013-06-07 04:12:00,
2013-06-07 00:17:00,55.2,55.2,29.82,North,352,2.0,5.0,100,0.00,,OVC OVC///CB,0.00,WUHU216DAVISVP2,2013-06-07 04:17:00,
2013-06-07 00:22:00,55.2,55.2,29.82,North,360,1.0,5.0,100,0.00,,OVC OVC///CB,0.00,WUHU216DAVISVP2,2013-06-07 04:22:00,
2013-06-07 00:27:00,55.2,55.2,29.82,NE,46,4.0,6.0,100,0.00,,OVC OVC///CB,0.00,WUHU216DAVISVP2,2013-06-07 04:27:00,
2013-06-07 00:32:00,55.3,55.3,29.82,North,4,0.0,6.0,100,0.00,,OVC OVC///CB,0.00,WUHU216DAVISVP2,2013-06-07 04:32:00,
2013-06-07 00:37:00,55.3,55.3,29.82,NW,306,1.0,6.0,100,0.00,,OVC OVC///CB,0.00,WUHU216DAVISVP2,2013-06-07 04:37:00,
2013-06-07 00:42:00,55.3,55.3,29.82,NNE,13,2.0,6.0,100,0.00,,OVC OVC///CB,0.00,WUHU216DAVISVP2,2013-06-07 04:42:00,
2013-06-07 00:47:00,55.3,55.3,29.82,North,354,2.0,4.0,100,0.00,,OVC OVC///CB,0.00,WUHU216DAVISVP2,2013-06-07 04:47:00,
2013-06-07 00:52:00,55.3,55.3,29.82,West,281,1.0,4.0,100,0.00,,OVC OVC///CB,0.00,WUHU216DAVISVP2,2013-06-07 04:52:00,
2013-06-07 00:57:00,55.2,55.2,29.82,NNW,347,0.0,4.0,100,0.00,,OVC OVC///CB,0.00,WUHU216DAVISVP2,2013-06-07 04:57:00,
2013-06-07 01:02:00,55.1,55.1,29.82,NW,311,0.0,4.0,100,0.00,,OVC OVC///CB,0.00,WUHU216DAVISVP2,2013-06-07 05:02:00,
2013-06-07 01:07:00,55.2,55.2,29.82,North,11,0.0,5.0,100,0.00,,OVC OVC///CB,0.00,WUHU216DAVISVP2,2013-06-07 05:07:00,
2013-06-07 01:12:00,55.1,55.1,29.82,North,3,0.0,5.0,100,0.00,,OVC OVC///CB,0.00,WUHU216DAVISVP2,2013-06-07 05:12:00,
2013-06-07 01:17:00,55.2,55.2,29.82,WNW,297,1.0,5.0,100,0.00,,OVC OVC///CB,0.00,WUHU216DAVISVP2,2013-06-07 05:17:00,
2013-06-07 01:22:00,55.1,55.1,29.82,NW,314,1.0,5.0,100,0.00,,OVC OVC///CB,0.00,WUHU216DAVISVP2,2013-06-07 05:22:00,
2013-06-07 01:27:00,55.1,55.1,29.82,West,273,0.0,3.0,100,0.00,,OVC OVC///CB,0.00,WUHU216DAVISVP2,2013-06-07 05:27:00,
2013-06-07 01:32:00,55.1,55.1,29.82,North,8,1.0,5.0,100,0.00,,OVC OVC///CB,0.00,WUHU216DAVISVP2,2013-06-07 05:32:00,
2013-06-07 01:37:00,55.0,55.0,29.82,North,8,5.0,6.0,100,0.00,,OVC OVC///CB,0.00,WUHU216DAVISVP2,2013-06-07 05:37:00,
2013-06-07 01:42:00,55.0,55.0,29.82,North,1,4.0,7.0,100,0.00,,OVC OVC///CB,0.00,WUHU216DAVISVP2,2013-06-07 05:42:00,
2013-06-07 01:47:00,55.0,55.0,29.82,NNW,346,1.0,7.0,100,0.00,,OVC OVC///CB,0.00,WUHU216DAVISVP2,2013-06-07 05:47:00,
2013-06-07 01:52:00,55.0,55.0,29.82,NE,49,4.0,7.0,100,0.00,,OVC OVC///CB,0.00,WUHU216DAVISVP2,2013-06-07 05:52:00,
2013-06-07 01:57:00,55.0,55.0,29.82,ENE,68,1.0,6.0,100,0.00,,OVC OVC///CB,0.00,WUHU216DAVISVP2,2013-06-07 05:57:00,
2013-06-07 02:02:00,55.0,55.0,29.82,NNW,346,0.0,5.0,100,0.00,,OVC OVC///CB,0.00,WUHU216DAVISVP2,2013-06-07 06:02:00,
2013-06-07 02:07:00,55.0,55.0,29.82,NE,36,1.0,5.0,100,0.00,,OVC OVC///CB,0.00,WUHU216DAVISVP2,2013-06-07 06:07:00,
2013-06-07 02:12:00,55.0,55.0,29.82,NE,47,2.0,5.0,100,0.00,,OVC OVC///CB,0.00,WUHU216DAVISVP2,2013-06-07 06:12:00,
2013-06-07 02:17:00,54.9,54.9,29.82,NNE,15,4.0,6.0,100,0.00,,OVC OVC///CB,0.00,WUHU216DAVISVP2,2013-06-07 06:17:00,
2013-06-07 02:22:00,54.9,54.9,29.82,NNE,31,4.0,6.0,100,0.00,,OVC OVC///CB,0.00,WUHU216DAVISVP2,2013-06-07 06:22:00,
2013-06-07 02:27:00,54.9,54.9,29.82,NE,53,1.0,6.0,100,0.00,,OVC OVC///CB,0.00,WUHU216DAVISVP2,2013-06-07 06:27:00,
2013-06-07 02:32:00,54.9,54.9,29.82,NE,47,0.0,6.0,100,0.00,,OVC OVC///CB,0.00,WUHU216DAVISVP2,2013-06-07 06:32:00,
2013-06-07 02:37:00,54.9,54.9,29.82,NNE,23,5.0,7.0,100,0.00,,OVC OVC///CB,0.00,WUHU216DAVISVP2,2013-06-07 06:37:00,
2013-06-07 02:42:00,54.9,54.9,29.81,North,5,0.0,7.0,100,0.00,,OVC OVC///CB,0.00,WUHU216DAVISVP2,2013-06-07 06:42:00,
2013-06-07 02:47:00,54.9,54.9,29.81,NE,35,2.0,7.0,100,0.00,,OVC OVC///CB,0.00,WUHU216DAVISVP2,2013-06-07 06:47:00,
2013-06-07 02:52:00,54.9,54.9,29.81,NNE,30,1.0,6.0,100,0.00,,OVC OVC///CB,0.00,WUHU216DAVISVP2,2013-06-07 06:52:00,
2013-06-07 02:57:00,54.9,54.9,29.81,NNW,331,0.0,4.0,100,0.00,,OVC OVC///CB,0.00,WUHU216DAVISVP2,2013-06-07 06:57:00,
2013-06-07 03:02:00,54.9,54.9,29.82,NNW,344,0.0,4.0,100,0.00,,OVC OVC///CB,0.00,WUHU216DAVISVP2,2013-06-07 07:02:00,
2013-06-07 03:07:00,54.9,54.9,29.81,NW,316,0.0,4.0,100,0.00,,OVC OVC///CB,0.00,WUHU216DAVISVP2,2013-06-07 07:07:00,
2013-06-07 03:12:00,54.9,54.9,29.81,NW,316,3.0,5.0,100,0.00,,OVC OVC///CB,0.00,WUHU216DAVISVP2,2013-06-07 07:12:00,
2013-06-07 03:17:00,54.9,54.9,29.81,NNW,344,2.0,5.0,100,0.00,,OVC OVC///CB,0.00,WUHU216DAVISVP2,2013-06-07 07:17:00,
2013-06-07 03:22:00,54.9,54.9,29.81,NNE,25,2.0,5.0,100,0.00,,OVC OVC///CB,0.00,WUHU216DAVISVP2,2013-06-07 07:22:00,
2013-06-07 03:27:00,54.9,54.9,29.80,NE,43,0.0,5.0,100,0.00,,OVC OVC///CB,0.00,WUHU216DAVISVP2,2013-06-07 07:27:00,
2013-06-07 03:32:00,54.9,54.9,29.80,North,7,0.0,5.0,100,0.00,,OVC OVC///CB,0.00,WUHU216DAVISVP2,2013-06-07 07:32:00,
2013-06-07 03:37:00,54.8,54.8,29.80,NW,324,2.0,5.0,100,0.00,,OVC OVC///CB,0.00,WUHU216DAVISVP2,2013-06-07 07:37:00,
2013-06-07 03:42:00,54.8,54.8,29.80,NW,316,1.0,4.0,100,0.00,,OVC OVC///CB,0.00,WUHU216DAVISVP2,2013-06-07 07:42:00,
2013-06-07 03:47:00,54.9,54.9,29.80,North,4,1.0,4.0,100,0.00,,OVC OVC///CB,0.00,WUHU216DAVISVP2,2013-06-07 07:47:00,
2013-06-07 03:52:00,54.8,54.8,29.81,WNW,302,0.0,4.0,100,0.00,,OVC OVC///CB,0.00,WUHU216DAVISVP2,2013-06-07 07:52:00,
2013-06-07 03:57:00,54.8,54.8,29.81,NNW,338,0.0,3.0,100,0.00,,OVC OVC///CB,0.00,WUHU216DAVISVP2,2013-06-07 07:57:00,
2013-06-07 04:02:00,54.8,54.8,29.81,North,11,0.0,3.0,100,0.00,,OVC OVC///CB,0.00,WUHU216DAVISVP2,2013-06-07 08:02:00,
2013-06-07 04:07:00,54.9,54.9,29.81,NNE,16,2.0,4.0,100,0.00,,OVC OVC///CB,0.00,WUHU216DAVISVP2,2013-06-07 08:07:00,
2013-06-07 04:12:00,54.9,54.9,29.81,NNE,29,0.0,4.0,100,0.00,,OVC OVC///CB,0.00,WUHU216DAVISVP2,2013-06-07 08:12:00,
2013-06-07 04:17:00,54.9,54.9,29.81,NNW,344,2.0,4.0,100,0.00,,OVC OVC///CB,0.00,WUHU216DAVISVP2,2013-06-07 08:17:00,
2013-06-07 04:22:00,54.9,54.9,29.81,North,349,0.0,4.0,100,0.00,,OVC OVC///CB,0.00,WUHU216DAVISVP2,2013-06-07 08:22:00,
2013-06-07 04:27:00,54.9,54.9,29.81,NNW,340,1.0,3.0,100,0.00,,OVC OVC///CB,0.00,WUHU216DAVISVP2,2013-06-07 08:27:00,
2013-06-07 04:32:00,54.9,54.9,29.81,North,11,0.0,3.0,100,0.00,,OVC OVC///CB,0.00,WUHU216DAVISVP2,2013-06-07 08:32:00,
2013-06-07 04:37:00,54.9,54.9,29.80,NNW,329,2.0,3.0,100,0.00,,OVC OVC///CB,0.00,WUHU216DAVISVP2,2013-06-07 08:37:00,
2013-06-07 04:42:00,54.9,54.9,29.80,NNE,26,1.0,4.0,100,0.00,,OVC OVC///CB,0.00,WUHU216DAVISVP2,2013-06-07 08:42:00,
2013-06-07 04:47:00,54.8,54.8,29.81,North,8,1.0,4.0,100,0.00,,OVC OVC///CB,0.00,WUHU216DAVISVP2,2013-06-07 08:47:00,
2013-06-07 04:52:00,54.9,54.9,29.81,NNE,16,0.0,4.0,100,0.00,,OVC OVC///CB,0.00,WUHU216DAVISVP2,2013-06-07 08:52:00,
2013-06-07 04:57:00,54.9,54.9,29.81,NE,35,0.0,4.0,100,0.00,,OVC OVC///CB,0.00,WUHU216DAVISVP2,2013-06-07 08:57:00,
2013-06-07 05:02:00,54.9,54.9,29.81,North,9,1.0,4.0,100,0.00,,OVC OVC///CB,0.00,WUHU216DAVISVP2,2013-06-07 09:02:00,
2013-06-07 05:07:00,54.9,54.9,29.81,NNW,339,1.0,3.0,100,0.00,,OVC OVC///CB,0.00,WUHU216DAVISVP2,2013-06-07 09:07:00,
2013-06-07 05:12:00,54.9,54.9,29.81,North,358,0.0,3.0,100,0.00,,OVC OVC///CB,0.00,WUHU216DAVISVP2,2013-06-07 09:12:00,
2013-06-07 05:17:00,54.9,54.9,29.81,North,359,0.0,3.0,100,0.00,,OVC OVC///CB,0.00,WUHU216DAVISVP2,2013-06-07 09:17:00,
2013-06-07 05:22:00,54.9,54.9,29.81,NNE,18,5.0,5.0,100,0.00,,OVC OVC///CB,0.00,WUHU216DAVISVP2,2013-06-07 09:22:00,
2013-06-07 05:27:00,54.9,54.9,29.81,North,356,0.0,5.0,100,0.00,,OVC OVC///CB,0.00,WUHU216DAVISVP2,2013-06-07 09:27:00,
2013-06-07 05:32:00,54.9,54.9,29.81,NNW,327,0.0,5.0,100,0.00,,OVC OVC///CB,0.00,WUHU216DAVISVP2,2013-06-07 09:32:00,
2013-06-07 05:37:00,54.9,54.9,29.81,NNE,16,0.0,4.0,100,0.00,,OVC OVC///CB,0.00,WUHU216DAVISVP2,2013-06-07 09:37:00,
2013-06-07 05:42:00,54.9,54.9,29.81,ENE,78,0.0,4.0,100,0.00,,OVC OVC///CB,0.00,WUHU216DAVISVP2,2013-06-07 09:42:00,
2013-06-07 05:47:00,54.9,54.9,29.81,NNW,340,2.0,5.0,100,0.00,,OVC OVC///CB,0.00,WUHU216DAVISVP2,2013-06-07 09:47:00,
2013-06-07 05:52:00,54.9,54.9,29.81,NNE,23,3.0,5.0,100,0.00,,OVC OVC///CB,0.00,WUHU216DAVISVP2,2013-06-07 09:52:00,
2013-06-07 05:57:00,54.9,54.9,29.81,NNW,332,2.0,4.0,100,0.00,,OVC OVC///CB,0.00,WUHU216DAVISVP2,2013-06-07 09:57:00,
2013-06-07 06:02:00,54.9,54.9,29.81,North,10,0.0,4.0,100,0.00,,OVC OVC///CB,0.00,WUHU216DAVISVP2,2013-06-07 10:02:00,
2013-06-07 06:07:00,55.0,55.0,29.81,NNW,334,1.0,4.0,100,0.00,,OVC OVC///CB,0.00,WUHU216DAVISVP2,2013-06-07 10:07:00,
2013-06-07 06:12:00,55.0,55.0,29.81,NNE,13,2.0,4.0,100,0.00,,OVC OVC///CB,0.00,WUHU216DAVISVP2,2013-06-07 10:12:00,
2013-06-07 06:17:00,55.0,55.0,29.81,NW,305,1.0,4.0,100,0.00,,OVC OVC///CB,0.00,WUHU216DAVISVP2,2013-06-07 10:17:00,
2013-06-07 06:22:00,55.0,55.0,29.81,North,9,2.0,4.0,100,0.00,,OVC OVC///CB,0.00,WUHU216DAVISVP2,2013-06-07 10:22:00,
2013-06-07 06:27:00,55.0,55.0,29.81,NNW,327,2.0,4.0,100,0.00,,OVC OVC///CB,0.00,WUHU216DAVISVP2,2013-06-07 10:27:00,
2013-06-07 06:32:00,55.1,55.1,29.81,NNE,28,1.0,4.0,100,0.01,,OVC OVC///CB,0.01,WUHU216DAVISVP2,2013-06-07 10:32:00,
2013-06-07 06:37:00,55.1,55.1,29.81,NNE,26,0.0,4.0,100,0.01,,OVC OVC///CB,0.01,WUHU216DAVISVP2,2013-06-07 10:37:00,
2013-06-07 06:42:00,55.1,55.1,29.82,North,352,0.0,5.0,100,0.01,,OVC OVC///CB,0.01,WUHU216DAVISVP2,2013-06-07 10:42:00,
2013-06-07 06:47:00,55.1,55.1,29.82,NW,322,2.0,5.0,100,0.01,,OVC OVC///CB,0.01,WUHU216DAVISVP2,2013-06-07 10:47:00,
2013-06-07 06:52:00,55.1,55.1,29.82,North,359,0.0,5.0,100,0.01,,OVC OVC///CB,0.01,WUHU216DAVISVP2,2013-06-07 10:52:00,
2013-06-07 06:57:00,55.2,55.2,29.82,North,11,1.0,3.0,100,0.01,,OVC OVC///CB,0.01,WUHU216DAVISVP2,2013-06-07 10:57:00,
2013-06-07 07:02:00,55.3,55.3,29.82,WNW,285,1.0,3.0,100,0.01,,OVC OVC///CB,0.01,WUHU216DAVISVP2,2013-06-07 11:02:00,
2013-06-07 07:07:00,55.2,55.2,29.82,West,281,0.0,4.0,100,0.01,,OVC OVC///CB,0.01,WUHU216DAVISVP2,2013-06-07 11:07:00,
2013-06-07 07:12:00,55.3,55.3,29.82,NW,305,0.0,4.0,100,0.01,,OVC OVC///CB,0.01,WUHU216DAVISVP2,2013-06-07 11:12:00,
2013-06-07 07:17:00,55.3,55.3,29.83,North,1,2.0,4.0,100,0.01,,OVC OVC///CB,0.01,WUHU216DAVISVP2,2013-06-07 11:17:00,
2013-06-07 07:22:00,55.3,55.3,29.83,NW,316,0.0,4.0,100,0.01,,OVC OVC///CB,0.01,WUHU216DAVISVP2,2013-06-07 11:22:00,
2013-06-07 07:27:00,55.3,55.3,29.82,North,9,3.0,4.0,100,0.01,,OVC OVC///CB,0.01,WUHU216DAVISVP2,2013-06-07 11:27:00,
2013-06-07 07:32:00,55.3,55.3,29.83,North,9,0.0,4.0,100,0.00,,OVC OVC///CB,0.01,WUHU216DAVISVP2,2013-06-07 11:32:00,
2013-06-07 07:37:00,55.4,55.4,29.83,NNW,338,3.0,4.0,100,0.00,,OVC OVC///CB,0.01,WUHU216DAVISVP2,2013-06-07 11:37:00,
2013-06-07 07:42:00,55.4,55.4,29.83,North,4,2.0,3.0,100,0.00,,OVC OVC///CB,0.01,WUHU216DAVISVP2,2013-06-07 11:42:00,
2013-06-07 07:47:00,55.4,55.4,29.83,NE,44,0.0,3.0,100,0.00,,OVC OVC///CB,0.01,WUHU216DAVISVP2,2013-06-07 11:47:00,
2013-06-07 07:52:00,55.4,55.4,29.83,NNE,21,0.0,3.0,100,0.00,,OVC OVC///CB,0.01,WUHU216DAVISVP2,2013-06-07 11:52:00,
2013-06-07 07:57:00,55.5,55.5,29.83,NW,322,0.0,2.0,100,0.00,,OVC OVC///CB,0.01,WUHU216DAVISVP2,2013-06-07 11:57:00,
2013-06-07 08:02:00,55.5,55.5,29.83,NW,322,0.0,1.0,100,0.00,,OVC OVC///CB,0.01,WUHU216DAVISVP2,2013-06-07 12:02:00,
2013-06-07 08:07:00,55.6,55.6,29.83,NNW,334,0.0,1.0,100,0.00,,OVC OVC///CB,0.01,WUHU216DAVISVP2,2013-06-07 12:07:00,
2013-06-07 08:12:00,55.7,55.7,29.83,NE,51,0.0,1.0,100,0.00,,OVC OVC///CB,0.01,WUHU216DAVISVP2,2013-06-07 12:12:00,
2013-06-07 08:17:00,55.7,55.7,29.83,North,8,0.0,2.0,100,0.00,,OVC OVC///CB,0.01,WUHU216DAVISVP2,2013-06-07 12:17:00,
2013-06-07 08:22:00,55.8,55.8,29.83,North,355,0.0,2.0,100,0.00,,OVC OVC///CB,0.01,WUHU216DAVISVP2,2013-06-07 12:22:00,
2013-06-07 08:27:00,55.9,55.9,29.83,North,1,0.0,2.0,100,0.00,,OVC OVC///CB,0.01,WUHU216DAVISVP2,2013-06-07 12:27:00,
2013-06-07 08:32:00,56.0,56.0,29.83,North,1,0.0,2.0,100,0.00,,OVC OVC///CB,0.01,WUHU216DAVISVP2,2013-06-07 12:32:00,
2013-06-07 08:37:00,56.1,56.1,29.83,North,4,0.0,2.0,100,0.00,,OVC OVC///CB,0.01,WUHU216DAVISVP2,2013-06-07 12:37:00,
2013-06-07 08:42:00,56.2,56.2,29.83,WNW,299,0.0,2.0,100,0.00,,OVC OVC///CB,0.01,WUHU216DAVISVP2,2013-06-07 12:42:00,
2013-06-07 08:47:00,56.2,56.2,29.83,NNW,334,0.0,2.0,100,0.00,,OVC OVC///CB,0.01,WUHU216DAVISVP2,2013-06-07 12:47:00,
2013-06-07 08:52:00,56.2,56.2,29.83,NNE,32,0.0,2.0,100,0.00,,OVC OVC///CB,0.01,WUHU216DAVISVP2,2013-06-07 12:52:00,
2013-06-07 08:57:00,56.3,56.3,29.83,NNW,344,1.0,3.0,100,0.00,,OVC OVC///CB,0.01,WUHU216DAVISVP2,2013-06-07 12:57:00,
2013-06-07 09:02:00,56.4,56.4,29.83,NE,47,2.0,3.0,100,0.00,,OVC OVC///CB,0.01,WUHU216DAVISVP2,2013-06-07 13:02:00,
2013-06-07 09:07:00,56.5,56.5,29.83,NNW,347,0.0,3.0,100,0.00,,OVC OVC///CB,0.01,WUHU216DAVISVP2,2013-06-07 13:07:00,
2013-06-07 09:12:00,56.7,56.7,29.83,North,11,1.0,3.0,100,0.00,,OVC OVC///CB,0.01,WUHU216DAVISVP2,2013-06-07 13:12:00,
2013-06-07 09:17:00,56.8,56.8,29.83,North,3,0.0,3.0,100,0.00,,OVC OVC///CB,0.01,WUHU216DAVISVP2,2013-06-07 13:17:00,
2013-06-07 09:22:00,56.8,56.8,29.83,WNW,289,1.0,4.0,100,0.00,,OVC OVC///CB,0.01,WUHU216DAVISVP2,2013-06-07 13:22:00,
2013-06-07 09:27:00,56.7,56.7,29.83,NNE,19,1.0,4.0,100,0.00,,OVC OVC///CB,0.01,WUHU216DAVISVP2,2013-06-07 13:27:00,
2013-06-07 09:32:00,56.7,56.7,29.83,NE,36,3.0,6.0,100,0.00,,OVC OVC///CB,0.01,WUHU216DAVISVP2,2013-06-07 13:32:00,
2013-06-07 09:37:00,56.8,56.8,29.83,NE,37,3.0,6.0,100,0.00,,OVC OVC///CB,0.01,WUHU216DAVISVP2,2013-06-07 13:37:00,
2013-06-07 09:42:00,56.8,56.8,29.83,North,354,3.0,6.0,100,0.00,,OVC OVC///CB,0.01,WUHU216DAVISVP2,2013-06-07 13:42:00,
2013-06-07 09:47:00,56.7,56.7,29.83,NE,47,1.0,6.0,100,0.00,,OVC OVC///CB,0.01,WUHU216DAVISVP2,2013-06-07 13:47:00,
2013-06-07 09:52:00,56.8,56.8,29.84,ENE,61,4.0,6.0,100,0.00,,OVC OVC///CB,0.01,WUHU216DAVISVP2,2013-06-07 13:52:00,
2013-06-07 09:57:00,57.0,57.0,29.84,NNW,338,0.0,6.0,100,0.00,,OVC OVC///CB,0.01,WUHU216DAVISVP2,2013-06-07 13:57:00,
2013-06-07 10:02:00,57.0,57.0,29.83,NNE,15,1.0,6.0,100,0.00,,OVC OVC///CB,0.01,WUHU216DAVISVP2,2013-06-07 14:02:00,
2013-06-07 10:07:00,57.0,57.0,29.83,NNW,335,3.0,6.0,100,0.00,,OVC OVC///CB,0.01,WUHU216DAVISVP2,2013-06-07 14:07:00,
2013-06-07 10:12:00,57.0,57.0,29.83,ENE,64,2.0,6.0,100,0.00,,OVC OVC///CB,0.01,WUHU216DAVISVP2,2013-06-07 14:12:00,
2013-06-07 10:17:00,57.0,57.0,29.83,NNE,33,2.0,6.0,100,0.00,,OVC OVC///CB,0.01,WUHU216DAVISVP2,2013-06-07 14:17:00,
2013-06-07 10:22:00,57.1,57.1,29.83,NE,36,3.0,6.0,100,0.00,,OVC OVC///CB,0.01,WUHU216DAVISVP2,2013-06-07 14:22:00,
2013-06-07 10:27:00,57.3,57.3,29.83,NNW,344,0.0,6.0,100,0.00,,OVC OVC///CB,0.01,WUHU216DAVISVP2,2013-06-07 14:27:00,
2013-06-07 10:32:00,57.2,57.2,29.83,NNE,19,7.0,9.0,100,0.00,,OVC OVC///CB,0.01,WUHU216DAVISVP2,2013-06-07 14:32:00,
2013-06-07 10:37:00,57.2,57.0,29.83,NNW,343,1.0,9.0,99,0.00,,OVC OVC///CB,0.01,WUHU216DAVISVP2,2013-06-07 14:37:00,
2013-06-07 10:42:00,57.4,57.2,29.83,NNE,20,2.0,9.0,99,0.00,,OVC OVC///CB,0.01,WUHU216DAVISVP2,2013-06-07 14:42:00,
2013-06-07 10:47:00,57.6,57.4,29.83,NE,53,0.0,8.0,99,0.00,,OVC OVC///CB,0.01,WUHU216DAVISVP2,2013-06-07 14:47:00,
2013-06-07 10:52:00,57.9,57.7,29.82,NNE,15,6.0,8.0,99,0.00,,OVC OVC///CB,0.01,WUHU216DAVISVP2,2013-06-07 14:52:00,
2013-06-07 10:57:00,58.0,57.5,29.83,NNE,13,1.0,8.0,98,0.00,,OVC OVC///CB,0.01,WUHU216DAVISVP2,2013-06-07 14:57:00,
2013-06-07 11:02:00,58.1,57.6,29.83,North,352,4.0,8.0,98,0.00,,OVC OVC///CB,0.01,WUHU216DAVISVP2,2013-06-07 15:02:00,
2013-06-07 11:07:00,58.3,57.8,29.83,NNE,33,1.0,8.0,98,0.00,,OVC OVC///CB,0.01,WUHU216DAVISVP2,2013-06-07 15:07:00,
2013-06-07 11:12:00,58.4,57.9,29.83,NNE,26,2.0,6.0,98,0.00,,OVC OVC///CB,0.01,WUHU216DAVISVP2,2013-06-07 15:12:00,
2013-06-07 11:17:00,58.4,57.6,29.83,North,3,4.0,6.0,97,0.00,,OVC OVC///CB,0.01,WUHU216DAVISVP2,2013-06-07 15:17:00,
2013-06-07 11:22:00,58.6,57.8,29.83,NW,309,0.0,6.0,97,0.00,,OVC OVC///CB,0.01,WUHU216DAVISVP2,2013-06-07 15:22:00,
2013-06-07 11:27:00,58.5,57.7,29.83,NNE,18,3.0,7.0,97,0.00,,OVC OVC///CB,0.01,WUHU216DAVISVP2,2013-06-07 15:27:00,
2013-06-07 11:32:00,58.4,57.6,29.83,NE,37,3.0,7.0,97,0.00,,OVC OVC///CB,0.01,WUHU216DAVISVP2,2013-06-07 15:32:00,
2013-06-07 11:37:00,58.3,57.5,29.83,NE,55,3.0,7.0,97,0.00,,OVC OVC///CB,0.01,WUHU216DAVISVP2,2013-06-07 15:37:00,
2013-06-07 11:42:00,58.6,58.1,29.83,NE,42,3.0,7.0,98,0.00,,OVC OVC///CB,0.01,WUHU216DAVISVP2,2013-06-07 15:42:00,
2013-06-07 11:47:00,58.9,58.1,29.83,NE,47,3.0,6.0,97,0.00,,OVC OVC///CB,0.01,WUHU216DAVISVP2,2013-06-07 15:47:00,
2013-06-07 11:52:00,59.0,58.2,29.83,North,350,2.0,6.0,97,0.00,,OVC OVC///CB,0.01,WUHU216DAVISVP2,2013-06-07 15:52:00,
2013-06-07 11:57:00,59.1,58.0,29.83,NW,324,5.0,6.0,96,0.00,,OVC OVC///CB,0.01,WUHU216DAVISVP2,2013-06-07 15:57:00,
2013-06-07 12:02:00,59.1,57.8,29.83,NNE,30,7.0,11.0,95,0.00,,OVC OVC///CB,0.01,WUHU216DAVISVP2,2013-06-07 16:02:00,
2013-06-07 12:07:00,59.2,57.8,29.83,NNE,29,6.0,11.0,95,0.00,,OVC OVC///CB,0.01,WUHU216DAVISVP2,2013-06-07 16:07:00,
2013-06-07 12:12:00,59.5,58.4,29.83,NNW,327,1.0,11.0,96,0.00,,OVC OVC///CB,0.01,WUHU216DAVISVP2,2013-06-07 16:12:00,
2013-06-07 12:17:00,59.7,58.3,29.82,NE,44,6.0,9.0,95,0.00,,OVC OVC///CB,0.01,WUHU216DAVISVP2,2013-06-07 16:17:00,
2013-06-07 12:22:00,59.7,58.1,29.83,NNW,328,5.0,8.0,94,0.00,,OVC OVC///CB,0.01,WUHU216DAVISVP2,2013-06-07 16:22:00,
2013-06-07 12:27:00,59.6,58.0,29.83,NNW,338,2.0,8.0,94,0.00,,OVC OVC///CB,0.01,WUHU216DAVISVP2,2013-06-07 16:27:00,
2013-06-07 12:32:00,59.7,58.1,29.83,NW,322,6.0,8.0,94,0.00,,OVC OVC///CB,0.01,WUHU216DAVISVP2,2013-06-07 16:32:00,
2013-06-07 12:37:00,59.8,58.2,29.82,North,4,6.0,8.0,94,0.00,,OVC OVC///CB,0.01,WUHU216DAVISVP2,2013-06-07 16:37:00,
2013-06-07 12:42:00,60.1,58.7,29.82,NW,322,3.0,8.0,95,0.00,,OVC OVC///CB,0.01,WUHU216DAVISVP2,2013-06-07 16:42:00,
2013-06-07 12:47:00,60.3,58.6,29.82,NE,46,2.0,8.0,94,0.00,,OVC OVC///CB,0.01,WUHU216DAVISVP2,2013-06-07 16:47:00,
2013-06-07 12:52:00,60.5,58.8,29.82,North,11,4.0,7.0,94,0.00,,OVC OVC///CB,0.01,WUHU216DAVISVP2,2013-06-07 16:52:00,
2013-06-07 12:57:00,60.4,58.7,29.82,NNE,20,1.0,7.0,94,0.00,,OVC OVC///CB,0.01,WUHU216DAVISVP2,2013-06-07 16:57:00,
2013-06-07 13:02:00,60.5,58.8,29.82,North,355,3.0,7.0,94,0.00,,OVC OVC///CB,0.01,WUHU216DAVISVP2,2013-06-07 17:02:00,
2013-06-07 13:07:00,60.6,58.9,29.82,NE,47,0.0,7.0,94,0.00,,OVC OVC///CB,0.01,WUHU216DAVISVP2,2013-06-07 17:07:00,
2013-06-07 13:12:00,60.5,58.5,29.81,NW,325,4.0,7.0,93,0.00,,OVC OVC///CB,0.01,WUHU216DAVISVP2,2013-06-07 17:12:00,
2013-06-07 13:17:00,60.6,58.6,29.81,NE,49,2.0,7.0,93,0.00,,OVC OVC///CB,0.01,WUHU216DAVISVP2,2013-06-07 17:17:00,
2013-06-07 13:22:00,60.7,58.7,29.81,NNE,26,3.0,7.0,93,0.00,,OVC OVC///CB,0.01,WUHU216DAVISVP2,2013-06-07 17:22:00,
2013-06-07 13:27:00,60.7,58.7,29.81,NNE,13,6.0,7.0,93,0.00,,OVC OVC///CB,0.01,WUHU216DAVISVP2,2013-06-07 17:27:00,
2013-06-07 13:32:00,60.7,58.7,29.81,West,264,0.0,7.0,93,0.00,,OVC OVC///CB,0.01,WUHU216DAVISVP2,2013-06-07 17:32:00,
2013-06-07 13:37:00,60.7,58.7,29.81,NNE,13,4.0,7.0,93,0.00,,OVC OVC///CB,0.01,WUHU216DAVISVP2,2013-06-07 17:37:00,
2013-06-07 13:42:00,60.5,58.5,29.81,North,350,3.0,6.0,93,0.00,,OVC OVC///CB,0.01,WUHU216DAVISVP2,2013-06-07 17:42:00,
2013-06-07 13:47:00,60.5,58.8,29.81,NW,325,2.0,6.0,94,0.00,,OVC OVC///CB,0.01,WUHU216DAVISVP2,2013-06-07 17:47:00,
2013-06-07 14:14:00,61.3,59.0,29.81,NE,47,4.0,5.0,92,0.00,,OVC OVC///CB,0.01,WUHU216DAVISVP2,2013-06-07 18:14:00,
2013-06-07 14:19:00,61.0,58.4,29.81,NNW,341,2.0,7.0,91,0.00,,OVC OVC///CB,0.01,WUHU216DAVISVP2,2013-06-07 18:19:00,
2013-06-07 14:25:00,61.1,58.8,29.81,NNE,22,2.0,7.0,92,0.00,,OVC OVC///CB,0.01,WUHU216DAVISVP2,2013-06-07 18:25:00,
2013-06-07 14:48:00,61.3,58.4,29.81,NNE,27,2.0,9.0,90,0.00,,OVC OVC///CB,0.01,WUHU216DAVISVP2,2013-06-07 18:48:00,
2013-06-07 14:53:00,61.5,58.6,29.81,NNW,330,3.0,9.0,90,0.00,,OVC OVC///CB,0.01,WUHU216DAVISVP2,2013-06-07 18:53:00,
2013-06-07 14:58:00,61.5,58.6,29.81,North,8,4.0,9.0,90,0.00,,OVC OVC///CB,0.01,WUHU216DAVISVP2,2013-06-07 18:58:00,
2013-06-07 15:03:00,61.5,58.6,29.81,NNE,18,2.0,8.0,90,0.00,,OVC OVC///CB,0.01,WUHU216DAVISVP2,2013-06-07 19:03:00,
2013-06-07 15:08:00,61.5,58.6,29.81,ENE,61,1.0,8.0,90,0.00,,OVC OVC///CB,0.01,WUHU216DAVISVP2,2013-06-07 19:08:00,
2013-06-07 15:13:00,61.5,58.9,29.81,ENE,58,3.0,7.0,91,0.00,,OVC OVC///CB,0.01,WUHU216DAVISVP2,2013-06-07 19:13:00,
2013-06-07 15:18:00,61.4,58.5,29.81,NNW,347,0.0,7.0,90,0.00,,OVC OVC///CB,0.01,WUHU216DAVISVP2,2013-06-07 19:18:00,
2013-06-07 15:23:00,61.7,58.8,29.81,NNE,20,3.0,7.0,90,0.00,,OVC OVC///CB,0.01,WUHU216DAVISVP2,2013-06-07 19:23:00,
2013-06-07 15:28:00,61.8,58.9,29.81,North,8,3.0,6.0,90,0.00,,OVC OVC///CB,0.01,WUHU216DAVISVP2,2013-06-07 19:28:00,
2013-06-07 15:33:00,61.9,59.0,29.81,NW,321,4.0,7.0,90,0.00,,OVC OVC///CB,0.01,WUHU216DAVISVP2,2013-06-07 19:33:00,
2013-06-07 15:38:00,61.9,59.0,29.81,ENE,75,0.0,7.0,90,0.00,,OVC OVC///CB,0.01,WUHU216DAVISVP2,2013-06-07 19:38:00,
2013-06-07 15:44:00,62.0,59.1,29.81,NNW,347,1.0,7.0,90,0.00,,OVC OVC///CB,0.01,WUHU216DAVISVP2,2013-06-07 19:44:00,
2013-06-07 15:49:00,61.9,59.0,29.81,NE,43,2.0,7.0,90,0.00,,OVC OVC///CB,0.01,WUHU216DAVISVP2,2013-06-07 19:49:00,
2013-06-07 15:54:00,61.8,58.6,29.81,NNE,33,3.0,7.0,89,0.00,,OVC OVC///CB,0.01,WUHU216DAVISVP2,2013-06-07 19:54:00,
2013-06-07 15:59:00,61.8,58.9,29.81,NNW,327,1.0,7.0,90,0.00,,OVC OVC///CB,0.01,WUHU216DAVISVP2,2013-06-07 19:59:00,
2013-06-07 16:04:00,62.0,59.1,29.81,NE,46,0.0,6.0,90,0.00,,OVC OVC///CB,0.01,WUHU216DAVISVP2,2013-06-07 20:04:00,
2013-06-07 16:09:00,62.0,59.1,29.81,WNW,302,1.0,6.0,90,0.00,,OVC OVC///CB,0.01,WUHU216DAVISVP2,2013-06-07 20:09:00,
2013-06-07 16:14:00,61.9,59.0,29.81,NE,48,1.0,5.0,90,0.00,,OVC OVC///CB,0.01,WUHU216DAVISVP2,2013-06-07 20:14:00,
2013-06-07 16:19:00,61.6,58.7,29.81,NE,49,3.0,8.0,90,0.00,,OVC OVC///CB,0.01,WUHU216DAVISVP2,2013-06-07 20:19:00,
2013-06-07 16:24:00,61.6,59.0,29.81,ENE,59,0.0,8.0,91,0.00,,OVC OVC///CB,0.01,WUHU216DAVISVP2,2013-06-07 20:24:00,
2013-06-07 16:29:00,61.6,58.7,29.81,North,6,0.0,7.0,90,0.00,,OVC OVC///CB,0.01,WUHU216DAVISVP2,2013-06-07 20:29:00,
2013-06-07 16:34:00,61.8,59.2,29.81,North,349,1.0,7.0,91,0.00,,OVC OVC///CB,0.01,WUHU216DAVISVP2,2013-06-07 20:34:00,
2013-06-07 16:39:00,62.2,59.3,29.81,NW,316,4.0,7.0,90,0.00,,OVC OVC///CB,0.01,WUHU216DAVISVP2,2013-06-07 20:39:00,
2013-06-07 16:44:00,62.4,59.5,29.80,North,9,11.0,11.0,90,0.00,,OVC OVC///CB,0.01,WUHU216DAVISVP2,2013-06-07 20:44:00,
2013-06-07 16:50:00,62.5,59.3,29.80,NNE,13,5.0,11.0,89,0.00,,OVC OVC///CB,0.01,WUHU216DAVISVP2,2013-06-07 20:50:00,
2013-06-07 16:55:00,62.6,59.4,29.81,NW,325,3.0,11.0,89,0.00,,OVC OVC///CB,0.01,WUHU216DAVISVP2,2013-06-07 20:55:00,
2013-06-07 17:00:00,62.4,58.9,29.81,NNW,334,1.0,10.0,88,0.00,,OVC OVC///CB,0.01,WUHU216DAVISVP2,2013-06-07 21:00:00,
2013-06-07 17:05:00,62.6,59.1,29.81,North,356,2.0,8.0,88,0.00,,OVC OVC///CB,0.01,WUHU216DAVISVP2,2013-06-07 21:05:00,
2013-06-07 17:11:00,62.5,59.0,29.81,NE,51,2.0,7.0,88,0.00,,OVC OVC///CB,0.01,WUHU216DAVISVP2,2013-06-07 21:11:00,
2013-06-07 17:16:00,62.4,59.2,29.81,North,6,2.0,9.0,89,0.00,,OVC OVC///CB,0.01,WUHU216DAVISVP2,2013-06-07 21:16:00,
2013-06-07 17:21:00,62.2,59.0,29.81,NNE,15,7.0,9.0,89,0.00,,OVC OVC///CB,0.01,WUHU216DAVISVP2,2013-06-07 21:21:00,
2013-06-07 17:26:00,62.0,58.8,29.81,WNW,302,3.0,8.0,89,0.00,,OVC OVC///CB,0.01,WUHU216DAVISVP2,2013-06-07 21:26:00,
2013-06-07 17:31:00,61.8,58.6,29.80,NE,39,4.0,8.0,89,0.00,,OVC OVC///CB,0.01,WUHU216DAVISVP2,2013-06-07 21:31:00,
2013-06-07 17:37:00,61.8,58.9,29.80,NE,36,3.0,8.0,90,0.00,,OVC OVC///CB,0.01,WUHU216DAVISVP2,2013-06-07 21:37:00,
2013-06-07 17:41:00,61.6,58.4,29.80,NNE,25,3.0,10.0,89,0.00,,OVC OVC///CB,0.01,WUHU216DAVISVP2,2013-06-07 21:41:00,
2013-06-07 17:47:00,61.4,58.5,29.80,NNE,30,1.0,10.0,90,0.00,,OVC OVC///CB,0.01,WUHU216DAVISVP2,2013-06-07 21:47:00,
2013-06-07 17:52:00,61.4,58.5,29.80,North,9,5.0,9.0,90,0.00,,OVC OVC///CB,0.01,WUHU216DAVISVP2,2013-06-07 21:52:00,
2013-06-07 17:57:00,61.2,58.3,29.80,NNE,17,4.0,11.0,90,0.00,,OVC OVC///CB,0.01,WUHU216DAVISVP2,2013-06-07 21:57:00,
2013-06-07 18:02:00,60.9,58.3,29.80,NE,41,4.0,11.0,91,0.00,,OVC OVC///CB,0.01,WUHU216DAVISVP2,2013-06-07 22:02:00,
2013-06-07 18:08:00,60.7,58.4,29.80,North,3,4.0,12.0,92,0.00,,OVC OVC///CB,0.01,WUHU216DAVISVP2,2013-06-07 22:08:00,
2013-06-07 18:13:00,60.7,58.1,29.81,NW,325,2.0,12.0,91,0.00,,OVC OVC///CB,0.01,WUHU216DAVISVP2,2013-06-07 22:13:00,
2013-06-07 18:18:00,60.5,57.9,29.81,ENE,58,5.0,11.0,91,0.00,,OVC OVC///CB,0.01,WUHU216DAVISVP2,2013-06-07 22:18:00,
2013-06-07 18:23:00,60.5,58.2,29.81,West,273,2.0,11.0,92,0.00,,OVC OVC///CB,0.01,WUHU216DAVISVP2,2013-06-07 22:23:00,
2013-06-07 18:28:00,60.3,58.1,29.81,North,352,8.0,9.0,92,0.00,,OVC OVC///CB,0.01,WUHU216DAVISVP2,2013-06-07 22:28:00,
2013-06-07 18:33:00,60.0,57.8,29.81,North,356,8.0,10.0,92,0.00,,OVC OVC///CB,0.01,WUHU216DAVISVP2,2013-06-07 22:33:00,
2013-06-07 18:38:00,59.9,57.7,29.81,NNE,13,4.0,11.0,92,0.00,,OVC OVC///CB,0.01,WUHU216DAVISVP2,2013-06-07 22:38:00,
2013-06-07 18:43:00,59.8,57.6,29.81,NE,41,2.0,11.0,92,0.00,,OVC OVC///CB,0.01,WUHU216DAVISVP2,2013-06-07 22:43:00,
2013-06-07 18:49:00,59.7,57.5,29.81,NNE,16,5.0,13.0,92,0.00,,OVC OVC///CB,0.01,WUHU216DAVISVP2,2013-06-07 22:49:00,
2013-06-07 18:54:00,59.7,57.5,29.81,North,8,4.0,13.0,92,0.00,,OVC OVC///CB,0.01,WUHU216DAVISVP2,2013-06-07 22:54:00,
2013-06-07 18:59:00,59.7,57.5,29.81,NE,46,5.0,12.0,92,0.00,,OVC OVC///CB,0.01,WUHU216DAVISVP2,2013-06-07 22:59:00,
2013-06-07 19:04:00,59.7,57.5,29.81,NNE,15,2.0,12.0,92,0.00,,OVC OVC///CB,0.01,WUHU216DAVISVP2,2013-06-07 23:04:00,
2013-06-07 19:09:00,59.7,57.5,29.82,NE,42,6.0,7.0,92,0.00,,OVC OVC///CB,0.01,WUHU216DAVISVP2,2013-06-07 23:09:00,
2013-06-07 19:14:00,59.6,57.4,29.82,North,354,0.0,7.0,92,0.00,,OVC OVC///CB,0.01,WUHU216DAVISVP2,2013-06-07 23:14:00,
2013-06-07 19:19:00,59.4,57.2,29.82,NNW,345,0.0,7.0,92,0.00,,OVC OVC///CB,0.01,WUHU216DAVISVP2,2013-06-07 23:19:00,
2013-06-07 19:24:00,59.3,57.1,29.82,North,359,5.0,7.0,92,0.00,,OVC OVC///CB,0.01,WUHU216DAVISVP2,2013-06-07 23:24:00,
2013-06-07 19:30:00,59.2,57.0,29.82,NNW,337,2.0,7.0,92,0.00,,OVC OVC///CB,0.01,WUHU216DAVISVP2,2013-06-07 23:30:00,
2013-06-07 19:35:00,59.1,57.2,29.82,NW,325,3.0,8.0,93,0.00,,OVC OVC///CB,0.01,WUHU216DAVISVP2,2013-06-07 23:35:00,
2013-06-07 19:40:00,59.0,56.8,29.83,ENE,77,2.0,8.0,92,0.00,,OVC OVC///CB,0.01,WUHU216DAVISVP2,2013-06-07 23:40:00,
2013-06-07 19:45:00,58.9,57.0,29.83,WNW,293,0.0,8.0,93,0.00,,OVC OVC///CB,0.01,WUHU216DAVISVP2,2013-06-07 23:45:00,
2013-06-07 19:50:00,58.8,56.9,29.83,East,98,0.0,7.0,93,0.00,,OVC OVC///CB,0.01,WUHU216DAVISVP2,2013-06-07 23:50:00,
2013-06-07 19:55:00,58.8,56.9,29.83,NNE,20,1.0,8.0,93,0.00,,OVC OVC///CB,0.01,WUHU216DAVISVP2,2013-06-07 23:55:00,
2013-06-07 20:00:00,58.7,56.8,29.83,NNW,334,4.0,8.0,93,0.00,,OVC OVC///CB,0.01,WUHU216DAVISVP2,2013-06-08 00:00:00,
2013-06-07 20:05:00,58.6,56.7,29.83,NW,316,1.0,8.0,93,0.00,,OVC OVC///CB,0.01,WUHU216DAVISVP2,2013-06-08 00:05:00,
2013-06-07 20:10:00,58.5,56.6,29.84,North,353,0.0,8.0,93,0.00,,OVC OVC///CB,0.01,WUHU216DAVISVP2,2013-06-08 00:10:00,
2013-06-07 20:15:00,58.4,56.5,29.84,NNW,337,2.0,7.0,93,0.00,,OVC OVC///CB,0.01,WUHU216DAVISVP2,2013-06-08 00:15:00,
2013-06-07 20:20:00,58.3,56.4,29.84,NE,39,3.0,9.0,93,0.00,,OVC OVC///CB,0.01,WUHU216DAVISVP2,2013-06-08 00:20:00,
2013-06-07 20:25:00,58.3,56.4,29.84,NNW,331,4.0,9.0,93,0.00,,OVC OVC///CB,0.01,WUHU216DAVISVP2,2013-06-08 00:25:00,
2013-06-07 20:30:00,58.2,56.6,29.84,NE,36,1.0,8.0,94,0.00,,OVC OVC///CB,0.01,WUHU216DAVISVP2,2013-06-08 00:30:00,
2013-06-07 20:35:00,58.1,56.5,29.84,NNW,334,1.0,8.0,94,0.00,,OVC OVC///CB,0.01,WUHU216DAVISVP2,2013-06-08 00:35:00,
2013-06-07 20:40:00,58.1,56.5,29.84,NNW,332,4.0,7.0,94,0.00,,OVC OVC///CB,0.01,WUHU216DAVISVP2,2013-06-08 00:40:00,
2013-06-07 20:45:00,58.0,56.4,29.84,ENE,61,0.0,7.0,94,0.00,,OVC OVC///CB,0.01,WUHU216DAVISVP2,2013-06-08 00:45:00,
2013-06-07 20:50:00,57.9,56.3,29.85,NW,311,1.0,7.0,94,0.00,,OVC OVC///CB,0.01,WUHU216DAVISVP2,2013-06-08 00:50:00,
2013-06-07 20:55:00,57.8,56.2,29.85,North,360,4.0,8.0,94,0.00,,OVC OVC///CB,0.01,WUHU216DAVISVP2,2013-06-08 00:55:00,
2013-06-07 21:01:00,57.7,56.1,29.85,NNE,28,3.0,10.0,94,0.00,,OVC OVC///CB,0.01,WUHU216DAVISVP2,2013-06-08 01:01:00,
2013-06-07 21:06:00,57.7,56.1,29.85,North,7,0.0,10.0,94,0.00,,OVC OVC///CB,0.01,WUHU216DAVISVP2,2013-06-08 01:06:00,
2013-06-07 21:11:00,57.7,56.1,29.85,NW,316,1.0,10.0,94,0.00,,OVC OVC///CB,0.01,WUHU216DAVISVP2,2013-06-08 01:11:00,
2013-06-07 21:16:00,57.6,56.0,29.85,NE,49,0.0,7.0,94,0.00,,OVC OVC///CB,0.01,WUHU216DAVISVP2,2013-06-08 01:16:00,
2013-06-07 21:21:00,57.6,56.0,29.85,ENE,58,4.0,6.0,94,0.00,,OVC OVC///CB,0.01,WUHU216DAVISVP2,2013-06-08 01:21:00,
2013-06-07 21:26:00,57.5,55.9,29.85,ENE,62,1.0,6.0,94,0.00,,OVC OVC///CB,0.01,WUHU216DAVISVP2,2013-06-08 01:26:00,
2013-06-07 21:32:00,57.4,55.8,29.85,NE,43,2.0,7.0,94,0.00,,OVC OVC///CB,0.01,WUHU216DAVISVP2,2013-06-08 01:32:00,
2013-06-07 21:37:00,57.4,56.1,29.86,NW,305,0.0,7.0,95,0.00,,OVC OVC///CB,0.01,WUHU216DAVISVP2,2013-06-08 01:37:00,
2013-06-07 21:42:00,57.3,56.0,29.86,North,11,1.0,6.0,95,0.00,,OVC OVC///CB,0.01,WUHU216DAVISVP2,2013-06-08 01:42:00,
2013-06-07 21:47:00,57.3,56.0,29.86,NE,38,1.0,6.0,95,0.00,,OVC OVC///CB,0.01,WUHU216DAVISVP2,2013-06-08 01:47:00,
2013-06-07 21:52:00,57.3,56.0,29.86,NNW,337,1.0,5.0,95,0.00,,OVC OVC///CB,0.01,WUHU216DAVISVP2,2013-06-08 01:52:00,
2013-06-07 21:57:00,57.3,56.0,29.87,NE,55,1.0,7.0,95,0.00,,OVC OVC///CB,0.01,WUHU216DAVISVP2,2013-06-08 01:57:00,
2013-06-07 22:02:00,57.2,55.9,29.87,North,354,0.0,7.0,95,0.00,,OVC OVC///CB,0.01,WUHU216DAVISVP2,2013-06-08 02:02:00,
2013-06-07 22:07:00,57.2,55.9,29.87,NW,325,3.0,6.0,95,0.00,,OVC OVC///CB,0.01,WUHU216DAVISVP2,2013-06-08 02:07:00,
2013-06-07 22:12:00,57.2,55.9,29.87,NNE,13,0.0,6.0,95,0.00,,OVC OVC///CB,0.01,WUHU216DAVISVP2,2013-06-08 02:12:00,
2013-06-07 22:17:00,57.2,55.9,29.87,North,352,2.0,4.0,95,0.00,,OVC OVC///CB,0.01,WUHU216DAVISVP2,2013-06-08 02:17:00,
2013-06-07 22:22:00,57.1,55.8,29.88,NNE,16,2.0,4.0,95,0.00,,OVC OVC///CB,0.01,WUHU216DAVISVP2,2013-06-08 02:22:00,
2013-06-07 22:27:00,57.1,55.8,29.88,NW,320,1.0,5.0,95,0.00,,OVC OVC///CB,0.01,WUHU216DAVISVP2,2013-06-08 02:27:00,
2013-06-07 22:33:00,57.1,55.8,29.88,North,356,0.0,5.0,95,0.00,,OVC OVC///CB,0.01,WUHU216DAVISVP2,2013-06-08 02:33:00,
2013-06-07 22:38:00,57.0,55.7,29.88,North,5,1.0,5.0,95,0.00,,OVC OVC///CB,0.01,WUHU216DAVISVP2,2013-06-08 02:38:00,
2013-06-07 22:43:00,57.0,55.7,29.88,North,349,1.0,5.0,95,0.00,,OVC OVC///CB,0.01,WUHU216DAVISVP2,2013-06-08 02:43:00,
2013-06-07 22:48:00,56.9,55.6,29.88,NNW,346,0.0,5.0,95,0.00,,OVC OVC///CB,0.01,WUHU216DAVISVP2,2013-06-08 02:48:00,
2013-06-07 22:53:00,56.9,55.6,29.88,ENE,65,0.0,5.0,95,0.00,,OVC OVC///CB,0.01,WUHU216DAVISVP2,2013-06-08 02:53:00,
2013-06-07 22:58:00,56.8,55.5,29.88,NNE,13,1.0,4.0,95,0.00,,OVC OVC///CB,0.01,WUHU216DAVISVP2,2013-06-08 02:58:00,
2013-06-07 23:03:00,56.8,55.5,29.88,NNW,328,0.0,4.0,95,0.00,,OVC OVC///CB,0.01,WUHU216DAVISVP2,2013-06-08 03:03:00,
2013-06-07 23:08:00,56.7,55.4,29.88,North,353,1.0,5.0,95,0.00,,OVC OVC///CB,0.01,WUHU216DAVISVP2,2013-06-08 03:08:00,
2013-06-07 23:13:00,56.7,55.4,29.88,West,271,1.0,6.0,95,0.00,,OVC OVC///CB,0.01,WUHU216DAVISVP2,2013-06-08 03:13:00,
2013-06-07 23:19:00,56.7,55.4,29.88,NNW,333,2.0,6.0,95,0.00,,OVC OVC///CB,0.01,WUHU216DAVISVP2,2013-06-08 03:19:00,
2013-06-07 23:24:00,56.7,55.4,29.88,North,4,0.0,5.0,95,0.00,,OVC OVC///CB,0.01,WUHU216DAVISVP2,2013-06-08 03:24:00,
2013-06-07 23:29:00,56.7,55.4,29.88,WNW,282,0.0,5.0,95,0.00,,OVC OVC///CB,0.01,WUHU216DAVISVP2,2013-06-08 03:29:00,
2013-06-07 23:34:00,56.6,55.3,29.88,NNW,344,0.0,5.0,95,0.00,,OVC OVC///CB,0.01,WUHU216DAVISVP2,2013-06-08 03:34:00,
2013-06-07 23:39:00,56.6,55.3,29.88,NNW,340,2.0,5.0,95,0.00,,OVC OVC///CB,0.01,WUHU216DAVISVP2,2013-06-08 03:39:00,
2013-06-07 23:44:00,56.5,55.2,29.88,NNW,344,2.0,5.0,95,0.00,,OVC OVC///CB,0.01,WUHU216DAVISVP2,2013-06-08 03:44:00,
2013-06-07 23:49:00,56.5,55.2,29.88,NNE,29,1.0,5.0,95,0.00,,OVC OVC///CB,0.01,WUHU216DAVISVP2,2013-06-08 03:49:00,
2013-06-07 23:54:00,56.5,55.2,29.88,NNE,18,0.0,4.0,95,0.00,,OVC OVC///CB,0.01,WUHU216DAVISVP2,2013-06-08 03:54:00,
2013-06-07 23:59:00,56.4,55.1,29.88,NW,317,0.0,4.0,95,0.00,,OVC OVC///CB,0.01,WUHU216DAVISVP2,2013-06-08 03:59:00,